When you browse on this site, cookies collect data to enhance your experience and personalize the content and advertising you see.
Visit our Privacy Policy to learn more. By continuing to use the site, you agree to this use of cookies and data.
  • In United Kingdom
  • List of Countries
  • For 7 days
  • Water Temperature
  • Satellite Maps
  • Weather Map
  • Weather Widgets
  • user-avatar
    Login

    Hourly Weather Kandahar

    Today, 23 January, Wednesday

    Time Temperature Precipitation Wind Pressure Humidity
    00:00 +4°C° 0 mm 0 mps 674 mmHg 36%
    01:00 +3°C° 0 mm 0 mps 674 mmHg 37%
    02:00 +3°C° 0 mm 0 mps 674 mmHg 38%
    03:00 +2°C° 0 mm 0 mps 674 mmHg 38%
    04:00 +2°C° 0 mm 0 mps 674 mmHg 39%
    05:00 +2°C° 0 mm 0 mps 674 mmHg 39%
    06:00 +2°C° 0 mm 0 mps 674 mmHg 39%
    07:00 +2°C° 0 mm 0 mps 675 mmHg 39%
    08:00 +3°C° 0 mm 0 mps 675 mmHg 35%
    09:00 +6°C° 0 mm 1 mps 676 mmHg 30%
    10:00 +8°C° 0 mm 1 mps 676 mmHg 26%
    11:00 +9°C° 0 mm 1 mps 676 mmHg 24%
    12:00 +9°C° 0 mm 1 mps 676 mmHg 23%
    13:00 +10°C° 0 mm 1 mps 676 mmHg 21%
    14:00 +10°C° 0 mm 1 mps 676 mmHg 21%
    15:00 +10°C° 0 mm 1 mps 676 mmHg 20%
    16:00 +11°C° 0 mm 1 mps 675 mmHg 20%
    17:00 +10°C° 0 mm 1 mps 676 mmHg 22%
    18:00 +9°C° 0 mm 1 mps 676 mmHg 25%
    19:00 +7°C° 0 mm 0 mps 676 mmHg 27%
    20:00 +7°C° 0 mm 0 mps 676 mmHg 28%
    21:00 +6°C° 0 mm 0 mps 676 mmHg 29%
    22:00 +6°C° 0 mm 0 mps 677 mmHg 29%
    23:00 +6°C° 0 mm 1 mps 677 mmHg 30%

    Tomorrow, 24 January, Thursday

    Time Temperature Precipitation Wind Pressure Humidity
    00:00 +6°C° 0 mm 1 mps 677 mmHg 30%
    01:00 +6°C° 0 mm 1 mps 677 mmHg 30%
    02:00 +6°C° 0 mm 1 mps 677 mmHg 31%
    03:00 +5°C° 0 mm 1 mps 677 mmHg 31%
    04:00 +5°C° 0 mm 1 mps 677 mmHg 32%
    05:00 +4°C° 0 mm 2 mps 677 mmHg 32%
    06:00 +4°C° 0 mm 2 mps 678 mmHg 33%
    07:00 +4°C° 0 mm 2 mps 678 mmHg 33%
    08:00 +5°C° 0 mm 2 mps 679 mmHg 30%
    09:00 +7°C° 0 mm 2 mps 679 mmHg 26%
    10:00 +8°C° 0 mm 2 mps 680 mmHg 23%
    11:00 +9°C° 0 mm 2 mps 679 mmHg 22%
    12:00 +11°C° 0 mm 1 mps 679 mmHg 21%
    13:00 +11°C° 0 mm 1 mps 678 mmHg 20%
    14:00 +11°C° 0 mm 1 mps 678 mmHg 20%
    15:00 +11°C° 0 mm 1 mps 678 mmHg 20%
    16:00 +11°C° 0 mm 1 mps 678 mmHg 20%
    17:00 +11°C° 0 mm 1 mps 678 mmHg 22%
    18:00 +10°C° 0 mm 1 mps 678 mmHg 25%
    19:00 +9°C° 0 mm 1 mps 678 mmHg 27%
    20:00 +8°C° 0 mm 1 mps 678 mmHg 29%
    21:00 +8°C° 0 mm 1 mps 678 mmHg 30%
    22:00 +6°C° 0 mm 0 mps 678 mmHg 31%
    23:00 +6°C° 0 mm 0 mps 678 mmHg 32%

    Day after tomorrow, 25 January, Friday

    Time Temperature Precipitation Wind Pressure Humidity
    00:00 +5°C° 0 mm 0 mps 678 mmHg 32%
    01:00 +5°C° 0 mm 0 mps 678 mmHg 33%
    02:00 +4°C° 0 mm 0 mps 677 mmHg 34%
    03:00 +4°C° 0 mm 0 mps 677 mmHg 34%
    04:00 +3°C° 0 mm 0 mps 677 mmHg 34%
    05:00 +3°C° 0 mm 0 mps 677 mmHg 34%
    06:00 +3°C° 0 mm 0 mps 677 mmHg 34%
    07:00 +4°C° 0 mm 1 mps 677 mmHg 34%
    08:00 +6°C° 0 mm 1 mps 678 mmHg 31%
    09:00 +7°C° 0 mm 1 mps 678 mmHg 27%
    10:00 +9°C° 0 mm 1 mps 679 mmHg 23%
    11:00 +10°C° 0 mm 1 mps 678 mmHg 22%
    12:00 +11°C° 0 mm 1 mps 678 mmHg 20%
    13:00 +11°C° 0 mm 1 mps 677 mmHg 19%
    14:00 +11°C° 0 mm 1 mps 677 mmHg 19%
    15:00 +12°C° 0 mm 1 mps 677 mmHg 18%
    16:00 +12°C° 0 mm 2 mps 677 mmHg 18%
    17:00 +11°C° 0 mm 1 mps 677 mmHg 21%
    18:00 +10°C° 0 mm 1 mps 677 mmHg 24%
    19:00 +8°C° 0 mm 0 mps 677 mmHg 26%
    20:00 +7°C° 0 mm 0 mps 677 mmHg 27%
    21:00 +7°C° 0 mm 0 mps 677 mmHg 28%
    22:00 +7°C° 0 mm 1 mps 677 mmHg 28%
    23:00 +7°C° 0 mm 1 mps 677 mmHg 29%

    26 January, Saturday

    Time Temperature Precipitation Wind Pressure Humidity
    00:00 +6°C° 0 mm 1 mps 677 mmHg 29%
    01:00 +6°C° 0 mm 1 mps 677 mmHg 30%
    02:00 +6°C° 0 mm 1 mps 677 mmHg 30%
    03:00 +6°C° 0 mm 1 mps 677 mmHg 30%
    04:00 +6°C° 0 mm 1 mps 676 mmHg 30%
    05:00 +5°C° 0 mm 2 mps 677 mmHg 30%
    06:00 +5°C° 0 mm 2 mps 677 mmHg 30%
    07:00 +5°C° 0 mm 2 mps 678 mmHg 30%
    08:00 +5°C° 0 mm 3 mps 678 mmHg 27%
    09:00 +8°C° 0 mm 3 mps 679 mmHg 24%
    10:00 +9°C° 0 mm 3 mps 680 mmHg 21%
    11:00 +10°C° 0 mm 2 mps 679 mmHg 20%
    12:00 +12°C° 0 mm 2 mps 679 mmHg 19%
    13:00 +13°C° 0 mm 2 mps 678 mmHg 18%
    14:00 +13°C° 0 mm 1 mps 678 mmHg 18%
    15:00 +13°C° 0 mm 1 mps 678 mmHg 18%
    16:00 +13°C° 0 mm 1 mps 677 mmHg 18%
    17:00 +12°C° 0 mm 1 mps 678 mmHg 20%
    18:00 +11°C° 0 mm 1 mps 678 mmHg 22%
    19:00 +10°C° 0 mm 1 mps 678 mmHg 25%
    20:00 +10°C° 0 mm 1 mps 679 mmHg 25%
    21:00 +9°C° 0 mm 1 mps 679 mmHg 26%
    22:00 +9°C° 0 mm 1 mps 679 mmHg 26%
    23:00 +8°C° 0 mm 2 mps 679 mmHg 27%

    27 January, Sunday

    Time Temperature Precipitation Wind Pressure Humidity
    00:00 +7°C° 0 mm 2 mps 679 mmHg 27%
    01:00 +7°C° 0 mm 2 mps 679 mmHg 28%
    02:00 +7°C° 0 mm 2 mps 678 mmHg 28%
    03:00 +6°C° 0 mm 2 mps 678 mmHg 29%
    04:00 +5°C° 0 mm 3 mps 678 mmHg 30%
    05:00 +5°C° 0 mm 3 mps 679 mmHg 31%
    06:00 +5°C° 0 mm 3 mps 679 mmHg 31%
    07:00 +4°C° 0 mm 3 mps 679 mmHg 32%
    08:00 +7°C° 0 mm 2 mps 680 mmHg 28%
    09:00 +9°C° 0 mm 2 mps 680 mmHg 25%
    10:00 +12°C° 0 mm 2 mps 681 mmHg 21%
    11:00 +13°C° 0 mm 2 mps 680 mmHg 20%
    12:00 +14°C° 0 mm 1 mps 680 mmHg 18%
    13:00 +15°C° 0 mm 1 mps 679 mmHg 17%
    14:00 +15°C° 0 mm 1 mps 679 mmHg 17%
    15:00 +15°C° 0 mm 1 mps 679 mmHg 17%
    16:00 +15°C° 0 mm 1 mps 679 mmHg 17%
    17:00 +14°C° 0 mm 1 mps 679 mmHg 20%
    18:00 +13°C° 0 mm 1 mps 679 mmHg 22%
    19:00 +12°C° 0 mm 1 mps 679 mmHg 25%
    20:00 +11°C° 0 mm 1 mps 679 mmHg 25%
    21:00 +11°C° 0 mm 1 mps 679 mmHg 26%
    22:00 +11°C° 0 mm 1 mps 679 mmHg 27%
    23:00 +10°C° 0 mm 1 mps 679 mmHg 27%

    28 January, Monday

    Time Temperature Precipitation Wind Pressure Humidity
    00:00 +10°C° 0 mm 1 mps 679 mmHg 28%
    01:00 +9°C° 0 mm 1 mps 678 mmHg 29%
    02:00 +9°C° 0 mm 1 mps 678 mmHg 30%
    03:00 +9°C° 0 mm 1 mps 678 mmHg 30%
    04:00 +9°C° 0 mm 1 mps 678 mmHg 31%
    05:00 +8°C° 0 mm 1 mps 679 mmHg 31%
    06:00 +8°C° 0 mm 1 mps 679 mmHg 32%
    07:00 +8°C° 0 mm 1 mps 679 mmHg 32%
    08:00 +10°C° 0 mm 1 mps 680 mmHg 28%
    09:00 +12°C° 0 mm 1 mps 681 mmHg 25%
    10:00 +14°C° 0 mm 1 mps 681 mmHg 22%
    11:00 +15°C° 0 mm 1 mps 681 mmHg 22%
    12:00 +16°C° 0 mm 1 mps 680 mmHg 22%
    13:00 +18°C° 0 mm 1 mps 680 mmHg 22%
    14:00 +18°C° 0 mm 1 mps 679 mmHg 22%
    15:00 +19°C° 0 mm 1 mps 679 mmHg 23%
    16:00 +19°C° 0 mm 1 mps 679 mmHg 23%
    17:00 +18°C° 0 mm 1 mps 679 mmHg 25%
    18:00 +18°C° 0 mm 1 mps 679 mmHg 27%
    19:00 +16°C° 0 mm 1 mps 679 mmHg 28%
    20:00 +15°C° 0 mm 1 mps 679 mmHg 29%
    21:00 +15°C° 0 mm 2 mps 679 mmHg 31%
    22:00 +14°C° 0 mm 2 mps 679 mmHg 32%
    23:00 +14°C° 0 mm 2 mps 678 mmHg 33%
    Show more